User: anonymous   Login
Location: Newark
(49.4900°N, 20.6656°E)
Time: 12:44:17
(UTC+00:00)
Language:

STARLINK-1751 - Orbit

View from above orbital plane
View from above orbital plane
View from above satellite
View from above satellite

Ground track
Ground track

The orbit data is extracted from the following two-line orbital elements,

1 46378U 20062BF  21163.10183276  .00000140  00000-0  28250-4 0  9995
2 46378  53.0561 185.0139 0000229 107.0568 253.0446 15.06395983 44121
Epoch (UTC): 12 June 2021 02:26:38
Eccentricity: 0.0000229
inclination: 53.0561°
perigee height: 547 km
apogee height: 547 km
right ascension of ascending node: 185.0139°
argument of perigee: 107.0568°
revolutions per day: 15.06395983
mean anomaly at epoch: 253.0446°
orbit number at epoch: 4412

The dashed part of the orbit path shows where the satellite is in the earth's shadow,  

DLR